User: anonymous   Login
Location: Unspecified
(0.0000°N, 0.0000°E)
Time: 20:32:01
(UTC+00:00)
Language:

APRIZESAT 2 (LATINSAT D) - Orbit

View from above orbital plane
View from above orbital plane
View from above satellite
View from above satellite

Ground track
Ground track

The orbit data is extracted from the following two-line orbital elements,

1 28366U 04025A   17326.72205476  .00000025  00000-0  22304-4 0  9990
2 28366  98.3321 235.6184 0106688 296.2065  62.8184 14.36623463702355
Epoch (UTC): 22 November 2017 17:19:45
Eccentricity: 0.0106688
inclination: 98.3321°
perigee height: 693 km
apogee height: 846 km
right ascension of ascending node: 235.6184°
argument of perigee: 296.2065°
revolutions per day: 14.36623463
mean anomaly at epoch: 62.8184°
orbit number at epoch: 70235

The dashed part of the orbit path shows where the satellite is in the earth's shadow,  

DLR